{"data":{"norad_id":43236,"epoch":"2026-05-25T00:09:19.249056Z","epoch_age_seconds":71626,"freshness":"FRESH","line1":"1 43236U 18025A   26145.00647279  .00037043  00000+0  45408-3 0  9997","line2":"2 43236  97.6339 314.1014 0002535  50.1213 310.0266 15.60263154456419","mean_motion":15.60263154,"eccentricity":0.0002535,"inclination_deg":97.6339,"raan_deg":314.1014,"arg_perigee_deg":50.1213,"mean_anomaly_deg":310.0266,"bstar":0.00045408,"rev_number":45641,"period_min":92.292123691335,"perigee_km":385.1813774979,"apogee_km":388.61124938782,"semimajor_km":6765.0333134429,"source":"CELESTRAK","updated_at":"2026-05-25T13:37:55.794675Z"}}